Weather History for Phnom Penh, Cambodia

Change the Weather History Date:

Tuesday, June 17, 2014

  Actual Average Record
Temperature  
Mean Temperature 86 °F -  
Max Temperature 93 °F 88 °F 96 °F (2002)
Min Temperature 78 °F 77 °F 75 °F (1999)
Cooling Degree Days 20    
Growing Degree Days 36 (Base 50)    
Moisture  
Dew Point 75 °F    
Average Humidity 77    
Maximum Humidity 89    
Minimum Humidity 52    
Precipitation  
Precipitation 0.00 in - - ()
Sea Level Pressure  
Sea Level Pressure 29.71 in    
Wind  
Wind Speed 8 mph ()    
Max Wind Speed 32 mph    
Max Gust Speed -    
Visibility 5.7 miles    
Events Rain , Thunderstorm    
Averages and records for this station are not official NWS values.
T = Trace of Precipitation, MM = Missing Value Source: Averaged Metar Reports

Daily Weather History Graph

Daily Weather History Graph

Search for Another Location

Airport:

Trip Planner

Search our weather history database for the weather conditions in past years. The results will help you decide how hot, cold, wet, or windy it might be!

Date:

Astronomy

Jun. 17, 2014 Rise Set
Actual Time 5:37 AM ICT 6:25 PM ICT
Civil Twilight 5:14 AM ICT 6:48 PM ICT
Nautical Twilight 4:46 AM ICT 7:16 PM ICT
Astronomical Twilight 4:19 AM ICT 7:43 PM ICT
Moon 10:19 PM ICT (6/17) 9:35 AM ICT (6/17)
Length of Visible Light 13h 34m
Length of Day
12h 48m
Waning Gibbous, 78% of the Moon is Illuminated
Jun 17
Waning Gibbous
Jun 20
Last Quarter
Jun 27
New
Jul 5
First Quarter
Jul 12
Full

Hourly Weather History & Observations

Time (ICT) Temp. Heat Index Dew Point Humidity Pressure Visibility Wind Dir Wind Speed Gust Speed Precip Events Conditions
12:00 AM 80.6 °F 85.4 °F 73.4 °F 79% 29.71 in 5.6 mi SSE 5.8 mph - N/A   Partly Cloudy
12:30 AM 82.4 °F 88.2 °F 73.4 °F 74% 29.71 in 5.6 mi SE 6.9 mph - N/A   Partly Cloudy
1:00 AM 82.4 °F 88.2 °F 73.4 °F 74% 29.71 in 5.6 mi SSE 6.9 mph - N/A   Partly Cloudy
6:00 AM 78.8 °F - 75.2 °F 89% 29.68 in 5.6 mi SSE 9.2 mph - N/A   Partly Cloudy
6:30 AM 80.6 °F 86.2 °F 75.2 °F 84% 29.68 in 5.6 mi SSE 6.9 mph - N/A   Scattered Clouds
7:00 AM 80 °F - 77 °F 87% 29.75 in 6 mi SE 4.5 mph - -   Overcast
7:00 AM 80.6 °F 87.1 °F 77.0 °F 89% 29.68 in 5.6 mi SSE 8.1 mph - N/A   Scattered Clouds
7:30 AM 80.6 °F 86.2 °F 75.2 °F 84% 29.71 in 5.6 mi SSE 8.1 mph - N/A   Scattered Clouds
8:00 AM 82.4 °F 90.9 °F 77.0 °F 84% 29.71 in - SSE 6.9 mph - N/A   Mostly Cloudy
8:30 AM 84.2 °F 92.3 °F 75.2 °F 74% 29.71 in 6.2 mi South 6.9 mph - N/A   Mostly Cloudy
9:00 AM 84.2 °F 92.3 °F 75.2 °F 74% 29.71 in 6.2 mi South 8.1 mph - N/A   Mostly Cloudy
9:30 AM 86.0 °F 95.1 °F 75.2 °F 70% 29.71 in 6.2 mi South 12.7 mph - N/A   Mostly Cloudy
10:00 AM 87.8 °F 97.6 °F 75.2 °F 66% 29.71 in 6.2 mi South 9.2 mph - N/A   Mostly Cloudy
10:30 AM 89.6 °F 99.8 °F 75.2 °F 62% 29.71 in 6.2 mi SSW 12.7 mph - N/A   Mostly Cloudy
11:00 AM 89.6 °F 98.2 °F 73.4 °F 59% 29.71 in 6.2 mi SSW 9.2 mph - N/A   Mostly Cloudy
11:30 AM 89.6 °F 98.2 °F 73.4 °F 59% 29.71 in 6.2 mi SW 11.5 mph - N/A   Mostly Cloudy
12:00 PM 93.2 °F 102.4 °F 73.4 °F 52% 29.68 in 6.2 mi SSW 11.5 mph - N/A   Mostly Cloudy
12:30 PM 91.4 °F 102.5 °F 75.2 °F 59% 29.68 in 6.2 mi SSW 11.5 mph - N/A   Mostly Cloudy
1:00 PM 91.4 °F 100.1 °F 73.4 °F 55% 29.68 in 6.2 mi SSW 12.7 mph - N/A   Partly Cloudy
1:30 PM 91.4 °F 98.4 °F 71.6 °F 52% 29.68 in 6.2 mi SW 12.7 mph - N/A   Partly Cloudy
2:00 PM 80.6 °F 85.4 °F 73.4 °F 79% 29.68 in 0.6 mi WSW 32.2 mph - N/A Rain , Thunderstorm Heavy Thunderstorms and Rain
2:30 PM 78.8 °F - 73.4 °F 83% 29.68 in 5.6 mi SW 17.3 mph - N/A   Mostly Cloudy
3:00 PM 80.6 °F 86.2 °F 75.2 °F 84% 29.68 in 5.6 mi SSW 10.4 mph - N/A   Mostly Cloudy
3:30 PM 80.6 °F 86.2 °F 75.2 °F 84% 29.68 in 5.6 mi SSW 6.9 mph - N/A   Mostly Cloudy
4:00 PM 80.6 °F 86.2 °F 75.2 °F 84% 29.68 in 5.6 mi South 5.8 mph - N/A   Mostly Cloudy
4:30 PM 80.6 °F 86.2 °F 75.2 °F 84% 29.68 in 5.6 mi SSW 5.8 mph - N/A   Mostly Cloudy
5:00 PM 80.6 °F 86.2 °F 75.2 °F 84% 29.68 in 5.6 mi SSW 5.8 mph - N/A   Mostly Cloudy
5:30 PM 82.4 °F 89.5 °F 75.2 °F 79% 29.68 in 5.6 mi SSW 5.8 mph - N/A   Mostly Cloudy
6:00 PM 82.4 °F 89.5 °F 75.2 °F 79% 29.68 in 5.6 mi SSW 3.5 mph - N/A Rain Light Rain
6:30 PM 82.4 °F 89.5 °F 75.2 °F 79% 29.68 in 5.6 mi South 3.5 mph - N/A Rain Light Rain
7:00 PM 80.6 °F 86.2 °F 75.2 °F 84% 29.68 in 5.6 mi South 4.6 mph - N/A Rain Light Rain
7:30 PM 80.6 °F 86.2 °F 75.2 °F 84% 29.71 in 5.6 mi South 4.6 mph - N/A Rain Light Rain
8:00 PM 80.6 °F 86.2 °F 75.2 °F 84% 29.74 in 5.6 mi SE 5.8 mph - N/A   Scattered Clouds
8:30 PM 80.6 °F 86.2 °F 75.2 °F 84% 29.74 in 5.6 mi SSE 5.8 mph - N/A   Scattered Clouds
9:00 PM 80.6 °F 86.2 °F 75.2 °F 84% 29.74 in 5.6 mi SSE 5.8 mph - N/A   Scattered Clouds
9:30 PM 80.6 °F 86.2 °F 75.2 °F 84% 29.74 in 5.6 mi South 5.8 mph - N/A   Scattered Clouds
10:00 PM 80.6 °F 86.2 °F 75.2 °F 84% 29.77 in 5.6 mi South 6.9 mph - N/A   Scattered Clouds
10:30 PM 80.6 °F 86.2 °F 75.2 °F 84% 29.77 in 5.6 mi SSE 8.1 mph - N/A   Scattered Clouds
11:00 PM 80.6 °F 86.2 °F 75.2 °F 84% 29.77 in 5.6 mi South 8.1 mph - N/A   Scattered Clouds
11:30 PM 80.6 °F 87.1 °F 77.0 °F 89% 29.77 in 5.6 mi South 5.8 mph - N/A   Scattered Clouds